Estación de Campanacura
Ultimos registro cada 15 minutos 33
| N° | Estación | Fecha / Hora | Temperatura | Humedad | Lluvia | Velocidad | Dirección | Radiación | Presion |
| 33 | Campanacura | 09-05-2026 08:00 | 4,4 | 37,3 | 0 | 0 | 175 | 31,9 | 1005,6 |
| 32 | Campanacura | 09-05-2026 07:45 | 4,5 | 35,7 | 0 | 0 | 185 | 8,1 | 1005,8 |
| 31 | Campanacura | 09-05-2026 07:30 | 3,9 | 31,7 | 0 | 0 | 190 | 1,9 | 1005,7 |
| 30 | Campanacura | 09-05-2026 07:15 | 3,7 | 29,9 | 0 | 0 | 180 | 0,6 | 1005,8 |
| 29 | Campanacura | 09-05-2026 07:00 | 3,6 | 30,6 | 0 | 0 | 178 | 0,6 | 1005,9 |
| 28 | Campanacura | 09-05-2026 06:45 | 3,9 | 31,7 | 0 | 0 | 181 | 0,6 | 1005,9 |
| 27 | Campanacura | 09-05-2026 06:30 | 4,5 | 32,3 | 0 | 0,5 | 188 | 0,6 | 1005,9 |
| 26 | Campanacura | 09-05-2026 06:15 | 4,5 | 32,8 | 0 | 0 | 185 | 0,6 | 1006,1 |
| 25 | Campanacura | 09-05-2026 06:00 | 4,7 | 35,4 | 0 | 0,5 | 185 | 0,6 | 1006,3 |
| 24 | Campanacura | 09-05-2026 05:45 | 5,1 | 38,8 | 0 | 0,5 | 191 | 0,6 | 1006 |
| 23 | Campanacura | 09-05-2026 05:30 | 5,7 | 46,3 | 0 | 0 | 190 | 0,6 | 1006,2 |
| 22 | Campanacura | 09-05-2026 05:15 | 6,5 | 48,7 | 0 | 1,5 | 191 | 0,6 | 1006,1 |
| 21 | Campanacura | 09-05-2026 05:00 | 7 | 51,7 | 0 | 1 | 191 | 0,6 | 1006,2 |
| 20 | Campanacura | 09-05-2026 04:45 | 6,9 | 48,9 | 0 | 1 | 191 | 0,6 | 1006,3 |
| 19 | Campanacura | 09-05-2026 04:30 | 7,1 | 46,1 | 0 | 1,5 | 191 | 0,6 | 1006,3 |
| 18 | Campanacura | 09-05-2026 04:15 | 6,8 | 40,7 | 0 | 1,5 | 191 | 0,6 | 1006,3 |
| 17 | Campanacura | 09-05-2026 04:00 | 6,9 | 35,4 | 0 | 1,5 | 191 | 0,6 | 1006,2 |
| 16 | Campanacura | 09-05-2026 03:45 | 6,4 | 25,2 | 0 | 1,5 | 192 | 0,6 | 1006,3 |
| 15 | Campanacura | 09-05-2026 03:30 | 6,1 | 25,3 | 0 | 0,5 | 185 | 0,6 | 1006,6 |
| 14 | Campanacura | 09-05-2026 03:15 | 6,4 | 24,8 | 0 | 0,5 | 178 | 0,6 | 1006,9 |
| 13 | Campanacura | 09-05-2026 03:00 | 7 | 23,4 | 0 | 1,5 | 192 | 0,6 | 1006,9 |
| 12 | Campanacura | 09-05-2026 02:45 | 6,9 | 22,2 | 0 | 1 | 191 | 0,6 | 1006,9 |
| 11 | Campanacura | 09-05-2026 02:30 | 6,8 | 22,1 | 0 | 1 | 190 | 0,6 | 1007 |
| 10 | Campanacura | 09-05-2026 02:15 | 7,2 | 21,2 | 0 | 1,5 | 191 | 0,6 | 1007 |
| 9 | Campanacura | 09-05-2026 02:00 | 7,1 | 21 | 0 | 0,5 | 173 | 0,6 | 1007,4 |
| 8 | Campanacura | 09-05-2026 01:45 | 6,7 | 21,5 | 0 | 0 | 190 | 0,6 | 1007,4 |
| 7 | Campanacura | 09-05-2026 01:30 | 7 | 21,1 | 0 | 0 | 194 | 0,6 | 1007,5 |
| 6 | Campanacura | 09-05-2026 01:15 | 7,3 | 20,8 | 0 | 0 | 190 | 0,6 | 1007,3 |
| 5 | Campanacura | 09-05-2026 01:00 | 7,3 | 20,7 | 0 | 0 | 187 | 0,6 | 1007,3 |
| 4 | Campanacura | 09-05-2026 00:45 | 7,6 | 20,3 | 0 | 0,5 | 191 | 0,6 | 1006,9 |
| 3 | Campanacura | 09-05-2026 00:30 | 7,7 | 20,1 | 0 | 0,5 | 190 | 0,6 | 1007,2 |
| 2 | Campanacura | 09-05-2026 00:15 | 8,2 | 19,8 | 0 | 1 | 191 | 0,6 | 1007 |
| 1 | Campanacura | 09-05-2026 00:00 | 8,4 | 19,7 | 0 | 1,5 | 191 | 0,6 | 1007,3 |